Simultaneous Nadir Overpasses (SNOs) Predictions

Prediction of SNOs between LANDSAT-8 and METOP-A Satellite Orbit:

Table of predicted SNOs for the next 14.0 days since TLE Epoch: 1/11/2014
Index Date (LANDSAT-8) Time (LANDSAT-8) Lat,Lon (LANDSAT-8) SZA (LANDSAT-8 ) Date (METOP-A) Time (METOP-A) Lat,Lon (METOP-A) SZA (METOP-A ) Distance(km) Time Diff (sec)
1 01/13/2014 11:58:21 81.16, 40.79 104.37 01/13/2014 11:57:48 81.16, 40.69 104.35 1.75 33
2 01/13/2014 12:47:47 -81.18,-151.25 75.60 01/13/2014 12:48:27 -81.18,-151.42 75.60 2.89 40
3 01/16/2014 07:32:31 81.17, 107.36 103.85 01/16/2014 07:32:07 81.17, 107.44 103.86 1.48 24
4 01/16/2014 08:21:57 -81.19, -84.67 76.11 01/16/2014 08:22:46 -81.19, -84.66 76.09 0.26 49
5 01/19/2014 03:06:42 81.17, 173.77 103.27 01/19/2014 03:06:28 81.17, 173.74 103.26 0.70 14
6 01/19/2014 03:56:08 -81.19, -18.24 76.70 01/19/2014 03:57:07 -81.19, -18.34 76.68 1.67 59
7 01/21/2014 22:40:52 81.18,-119.60 102.66 01/21/2014 22:40:48 81.18,-119.64 102.66 0.74 4
8 01/21/2014 23:30:18 -81.20, 48.40 77.30 01/21/2014 23:31:27 -81.20, 48.29 77.29 1.81 69
9 01/24/2014 17:25:36 -81.16, 138.88 78.06 01/24/2014 17:24:28 -81.16, 138.86 78.08 0.39 68




NCC Satellite Simultaneous Nadir Overpasses (SNOs) Prediction Service
